This demonstration page uses our WeatherBlox Daily Observations layout. Learn more.

Left ArrowRight Arrow

53.62937, 11.41316

Hourly Observations for February 12, 2018

Temp ( °F °C ) Dew Point ( °F °C ) Humidity (%) Winds ( mph kmh ) Pressure ( in mb ) Visibility ( mi km ) Precip ( " mm )
7:50 am 07:50 Cloudy 34 1 30 -1 87 87 SW 15 24 29.65 1004 30 48 N/A
8:20 am 08:20 Mostly Cloudy 34 1 30 -1 87 87 SW 16 26 29.65 1004 30 48 N/A
8:50 am 08:50 Mostly Cloudy 34 1 30 -1 87 87 SSW 15 24 29.68 1005 30 48 N/A
9:20 am 09:20 Mostly Cloudy 36 2 32 0 87 87 SW 16 26 29.68 1005 30 48 N/A
9:50 am 09:50 Mostly Cloudy 36 2 30 -1 81 81 SW 15 24 29.68 1005 30 48 N/A
10:20 am 10:20 Mostly Cloudy 36 2 30 -1 81 81 SW 17 28 29.71 1006 30 48 N/A
10:50 am 10:50 Mostly Cloudy 37 3 32 0 81 81 SW 16 26 29.71 1006 30 48 N/A
11:20 am 11:20 Mostly Cloudy 36 2 30 -1 81 81 SW 17 28 29.74 1007 30 48 N/A
12:20 pm 12:20 Mostly Cloudy with Light Rain 37 3 32 0 81 81 WSW 16 26 29.74 1007 30 48 N/A
12:50 pm 12:50 Partly Cloudy 37 3 32 0 81 81 WSW 14 22 29.74 1007 30 48 N/A
1:20 pm 13:20 Partly Cloudy 39 4 32 0 75 75 WSW 17 28 29.74 1007 30 48 N/A
1:50 pm 13:50 Partly Cloudy 41 5 32 0 70 70 WSW 17 28 29.77 1008 30 48 N/A
2:20 pm 14:20 Mostly Cloudy 41 5 32 0 70 70 WSW 17 28 29.77 1008 30 48 N/A
2:50 pm 14:50 Mostly Cloudy 41 5 30 -1 66 66 WSW 16 26 29.77 1008 30 48 N/A
3:20 pm 15:20 Mostly Cloudy 41 5 30 -1 66 66 WSW 15 24 29.77 1008 30 48 N/A
3:50 pm 15:50 Mostly Cloudy 39 4 28 -2 65 65 WSW 16 26 29.80 1009 30 48 N/A
4:20 pm 16:20 Mostly Cloudy 39 4 28 -2 65 65 WSW 16 26 29.80 1009 30 48 N/A
4:50 pm 16:50 Mostly Cloudy 37 3 28 -2 70 70 WSW 13 20 29.80 1009 30 48 N/A
5:20 pm 17:20 Mostly Cloudy 37 3 28 -2 70 70 SW 10 17 29.83 1010 30 48 N/A
5:50 pm 17:50 Mostly Cloudy with Light Snow 32 0 32 0 100 100 W 14 22 29.85 1011 3 5 N/A

Powered by AerisWeather